Simultaneous Nadir Overpasses (SNOs) Predictions

Prediction of SNOs between AQUA and NOAA-19 Satellite Orbit:

Table of predicted SNOs for the next 14.0 days since TLE Epoch: 5/3/2025
Index Date (AQUA) Time (AQUA) Lat,Lon (AQUA) SZA (AQUA ) Date (NOAA-19) Time (NOAA-19) Lat,Lon (NOAA-19) SZA (NOAA-19 ) Distance(km) Time Diff (sec)
1 05/03/2025 21:46:48 75.71,-142.12 59.75 05/03/2025 21:46:19 75.70,-142.04 59.74 2.38 29
2 05/03/2025 22:36:06 -75.75, 25.43 120.23 05/03/2025 22:37:16 -75.77, 25.45 120.20 2.30 70
3 05/05/2025 23:54:16 -75.69, 6.11 120.86 05/05/2025 23:53:37 -75.68, 6.10 120.88 1.79 39
4 05/06/2025 00:43:36 75.73, 173.66 59.17 05/06/2025 00:44:33 75.75, 173.58 59.18 2.54 57
5 05/08/2025 02:01:45 75.68, 154.34 58.55 05/08/2025 02:00:53 75.66, 154.27 58.53 2.59 52
6 05/08/2025 02:51:04 -75.77, -38.25 121.38 05/08/2025 02:51:51 -75.74, -38.22 121.40 3.27 47
7 05/10/2025 04:09:11 -75.66, -57.42 122.02 05/10/2025 04:08:11 -75.68, -57.47 122.01 2.07 60
8 05/10/2025 04:58:32 75.76, 109.97 58.06 05/10/2025 04:59:06 75.73, 109.99 58.04 2.80 34
9 05/12/2025 06:16:38 75.66, 90.79 57.45 05/12/2025 06:15:25 75.68, 90.78 57.46 2.75 73
10 05/12/2025 07:05:57 -75.74,-101.78 122.49 05/12/2025 07:06:25 -75.72,-101.85 122.51 3.05 28
11 05/14/2025 08:24:00 -75.54,-120.65 123.18 05/14/2025 08:22:49 -75.45,-121.75 123.29 32.09 71
12 05/14/2025 09:13:23 75.74, 46.42 57.00 05/14/2025 09:13:38 75.73, 46.44 57.01 0.69 15
13 05/16/2025 11:20:46 -75.71,-165.30 123.51 05/16/2025 11:20:58 -75.71,-165.44 123.52 3.84 12



Historial Predications of SNOs between AQUA and NOAA-19
